DW6997 Weather Reports


time (UTC)temp
F
wind
direction
speed
knots
gust
knots
rain 1hr
in
rain 24hr
in
rain mn
in
humidity
%
barometer
mb
20210518193006 50 237 2.6 5.2 0.15 0.25 0.25 91 1011.9
20210518192005 50 238 3.5 6.1 0.15 0.25 0.25 90 1011.8
20210518191005 50 239 2.6 6.1 0.15 0.25 0.25 90 1011.9
20210518190006 50 244 4.3 7.0 0.11 0.21 0.21 89 1012.0
20210518185006 51 259 4.3 8.7 0.06 0.16 0.16 88 1012.1
20210518184005 52 338 2.6 6.1 0.02 0.12 0.12 87 1012.1
20210518183005 52 336 1.7 4.3 0.00 0.10 0.10 86 1011.9
20210518182006 52 339 0.9 2.6 0.01 0.10 0.10 85 1011.7
20210518181005 53 337 1.7 3.5 0.02 0.10 0.10 85 1011.7
20210518180005 53 338 1.7 6.1 0.02 0.10 0.10 84 1011.6
20210518175005 53 346 1.7 3.5 0.02 0.10 0.10 83 1011.5
20210518174004 54 350 0.0 5.2 0.02 0.10 0.10 79 1011.4
20210518173004 56 351 0.9 2.6 0.02 0.10 0.10 75 1011.3
20210518172005 57 353 2.6 6.1 0.01 0.09 0.09 73 1011.2
20210518171004 58 354 2.6 6.1 0.00 0.09 0.09 70 1011.2
20210518170005 59 354 1.7 4.3 0.00 0.09 0.09 68 1011.1
20210518165004 59 354 2.6 4.3 0.00 0.09 0.09 65 1011.1
20210518164004 60 354 2.6 6.1 0.00 0.09 0.09 64 1011.1
20210518163004 62 350 2.6 5.2 0.00 0.09 0.09 63 1011.1
20210518162004 62 344 1.7 6.1 0.00 0.09 0.09 64 1011.2
20210518161004 62 331 0.9 4.3 0.00 0.09 0.09 62 1011.1
20210518160005 61 330 0.9 4.3 0.00 0.09 0.09 66 1011.2
20210518155005 60 330 0.9 5.2 0.00 0.09 0.09 66 1011.2
20210518154005 58 332 0.9 3.5 0.00 0.09 0.09 68 1011.2
20210518153004 58 336 1.7 4.3 0.00 0.09 0.09 72 1011.3
20210518152005 57 337 0.9 5.2 0.00 0.09 0.09 75 1011.4
20210518151005 56 337 1.7 3.5 0.00 0.09 0.09 74 1011.4
20210518150005 56 336 1.7 3.5 0.00 0.09 0.09 77 1011.4
20210518145005 56 333 2.6 5.2 0.00 0.09 0.09 78 1011.4
20210518144005 56 290 2.6 7.8 0.00 0.09 0.09 79 1011.5
20210518143004 55 134 1.7 5.2 0.00 0.09 0.09 80 1011.5
20210518142004 54 148 3.5 7.0 0.00 0.09 0.09 81 1011.5
20210518141005 53 167 3.5 6.1 0.00 0.09 0.09 82 1011.6
20210518140004 53 169 4.3 6.1 0.01 0.09 0.09 84 1011.7
20210518135004 52 169 4.3 7.0 0.01 0.09 0.09 84 1011.7
20210518134005 52 181 5.2 9.6 0.01 0.09 0.09 85 1011.8
20210518133004 52 193 5.2 10.4 0.02 0.09 0.09 86 1011.9
20210518132005 51 192 6.1 10.4 0.04 0.09 0.09 86 1011.8
20210518131005 51 188 5.2 12.2 0.06 0.09 0.09 85 1011.8
20210518130005 51 198 3.5 7.8 0.07 0.08 0.08 86 1011.8
20210518125005 50 207 3.5 4.3 0.07 0.08 0.08 84 1011.6
20210518124004 51 227 2.6 6.1 0.07 0.09 0.08 83 1011.5
20210518123004 51 237 3.5 5.2 0.06 0.07 0.06 81 1011.6
20210518122005 52 237 3.5 5.2 0.04 0.06 0.05 78 1011.5
20210518121005 53 230 4.3 9.6 0.02 0.03 0.02 71 1011.3
20210518120004 55 231 5.2 7.0 0.00 0.02 0.01 67 1011.2
20210518115004 56 230 4.3 9.6 0.00 0.02 0.01 64 1011.0
20210518114004 58 270 3.5 9.6 0.00 0.02 0.01 56 1010.9
20210518113004 59 271 1.7 7.0 0.00 0.02 0.01 53 1010.7
20210518112004 58 267 2.6 4.3 0.00 0.02 0.01 57 1010.6
20210518111004 58 270 2.6 6.1 0.00 0.02 0.01 56 1010.6
20210518110004 58 280 3.5 6.1 0.00 0.03 0.01 56 1010.5
20210518105005 58 293 4.3 8.7 0.00 0.03 0.01 56 1010.6
20210518104005 60 280 4.3 10.4 0.00 0.03 0.01 56 1010.7
20210518103004 58 265 4.3 8.7 0.00 0.03 0.01 62 1010.7
20210518102005 58 260 2.6 7.0 0.00 0.03 0.01 60 1010.8
20210518101005 57 291 3.5 8.7 0.00 0.03 0.01 63 1010.8
20210518100005 57 321 4.3 7.0 0.00 0.03 0.01 63 1010.8
20210518095004 57 288 5.2 8.7 0.00 0.03 0.01 68 1010.8
20210518094007 57 294 5.2 9.6 0.00 0.03 0.01 67 1010.7
20210518093005 55 265 5.2 9.6 0.00 0.03 0.01 67 1010.8
20210518092005 55 259 5.2 9.6 0.00 0.03 0.01 70 1010.8
20210518091004 57 283 4.3 8.7 0.00 0.03 0.01 67 1010.7
20210518090009 56 276 4.3 9.6 0.00 0.03 0.01 72 1010.8
20210518085004 55 279 4.3 7.8 0.00 0.03 0.01 71 1010.8
20210518084005 56 275 3.5 7.8 0.00 0.03 0.01 72 1010.8
20210518083005 55 282 4.3 7.8 0.00 0.03 0.01 75 1010.8
20210518082004 54 287 4.3 8.7 0.00 0.03 0.01 75 1010.8
20210518081004 53 268 4.3 7.8 0.00 0.03 0.01 78 1010.8
20210518080004 53 283 4.3 7.0 0.00 0.03 0.01 78 1010.8
20210518075005 53 291 4.3 7.8 0.00 0.03 0.01 78 1010.8
20210518074005 52 266 4.3 9.6 0.00 0.03 0.01 82 1010.7
20210518073005 52 251 4.3 10.4 0.00 0.03 0.01 82 1010.8
20210518072006 52 270 4.3 9.6 0.00 0.03 0.01 82 1010.8
20210518071005 51 243 3.5 8.7 0.00 0.03 0.01 85 1010.6
20210518070005 50 227 3.5 8.7 0.00 0.03 0.01 86 1010.6
20210518065006 49 229 3.5 4.3 0.00 0.03 0.01 87 1010.6
20210518064005 49 229 2.6 6.1 0.00 0.03 0.01 87 1010.7
20210518063005 49 228 2.6 7.0 0.00 0.03 0.01 88 1010.5
20210518062005 48 227 3.5 5.2 0.00 0.03 0.01 88 1010.4
20210518061004 48 228 3.5 7.0 0.00 0.03 0.01 88 1010.3
20210518060004 48 237 2.6 7.0 0.00 0.03 0.01 89 1010.3
20210518055005 48 238 2.6 4.3 0.00 0.03 0.01 90 1010.2
20210518054006 48 238 2.6 4.3 0.00 0.03 0.01 89 1010.2
20210518053005 48 238 2.6 5.2 0.00 0.03 0.01 90 1010.1
20210518052004 47 238 1.7 5.2 0.00 0.03 0.01 90 1010.1
20210518051004 47 238 1.7 3.5 0.00 0.03 0.01 89 1010.1
20210518050006 47 238 1.7 4.3 0.00 0.04 0.01 89 1009.9
20210518045005 47 238 2.6 4.3 0.00 0.04 0.01 89 1009.9
20210518044005 47 238 2.6 3.5 0.00 0.04 0.01 89 1009.8
20210518043005 47 239 2.6 6.1 0.00 0.04 0.01 89 1009.7
20210518042006 47 243 1.7 6.1 0.00 0.04 0.01 89 1009.7
20210518041005 47 244 2.6 4.3 0.00 0.04 0.01 89 1009.6
20210518040005 47 245 2.6 4.3 0.00 0.05 0.01 89 1009.6
20210518035005 47 245 2.6 4.3 0.00 0.05 0.01 89 1009.7
20210518034005 47 246 2.6 5.2 0.00 0.05 0.01 89 1009.7
20210518033005 47 247 1.7 4.3 0.01 0.05 0.01 88 1009.6
20210518032005 47 247 0.9 2.6 0.01 0.05 0.01 88 1009.7
20210518031005 47 0 0.0 2.6 0.01 0.05 0.01 87 1009.7
20210518030005 47 0 0.0 1.7 0.01 0.05 0.01 86 1009.7
20210518025006 47 247 0.9 0.9 0.01 0.05 0.01 86 1009.6
20210518024004 48 247 1.7 3.5 0.01 0.05 0.01 85 1009.6
20210518023006 48 247 0.9 4.3 0.00 0.04 0.00 85 1009.7
20210518022007 48 246 0.9 5.2 0.00 0.04 0.00 86 1009.6
20210518021005 47 245 0.9 4.3 0.00 0.04 0.00 87 1009.6
20210518020006 46 0 0.0 3.5 0.00 0.04 0.00 86 1009.6
20210518015005 46 245 0.0 2.6 0.00 0.04 0.00 86 1009.4
20210518014004 46 245 1.7 3.5 0.00 0.04 0.00 86 1009.3
20210518013006 46 247 3.5 6.1 0.00 0.04 0.00 86 1009.3
20210518012005 46 258 2.6 6.1 0.00 0.04 0.00 86 1009.3
20210518011005 46 262 2.6 4.3 0.00 0.04 0.00 85 1009.2
20210518010006 46 262 2.6 4.3 0.00 0.04 0.00 85 1009.3
20210518005006 46 263 2.6 4.3 0.00 0.04 0.00 85 1009.3
20210518004006 46 263 1.7 3.5 0.00 0.04 0.00 84 1009.2
20210518003005 47 263 2.6 4.3 0.00 0.04 0.00 84 1009.2
20210518002005 47 263 2.6 6.1 0.00 0.04 0.00 84 1009.2
20210518001005 47 264 3.5 6.1 0.00 0.04 0.00 83 1009.2
20210518000005 47 265 2.6 6.1 0.00 0.04 0.00 83 1009.3
20210517235005 47 266 2.6 5.2 0.00 0.04 0.00 82 1009.3
20210517234005 47 267 2.6 3.5 0.00 0.04 0.00 81 1009.4
20210517233005 47 267 2.6 4.3 0.00 0.04 0.00 81 1009.3
20210517232005 47 269 3.5 6.1 0.00 0.04 0.00 80 1009.3
20210517231005 48 270 3.5 6.1 0.00 0.04 0.00 80 1009.2
20210517230005 48 272 3.5 6.1 0.00 0.04 0.00 79 1009.3
20210517225006 48 270 3.5 7.8 0.00 0.04 0.04 78 1009.2
20210517224006 48 266 4.3 8.7 0.00 0.04 0.04 77 1009.2
20210517223006 48 264 3.5 9.6 0.00 0.04 0.04 77 1009.1
20210517222007 48 303 2.6 5.2 0.00 0.04 0.04 76 1009.0
20210517221005 48 302 1.7 4.3 0.00 0.04 0.04 75 1009.0
20210517220005 48 302 1.7 3.5 0.00 0.04 0.04 76 1008.9
20210517215006 48 303 1.7 2.6 0.00 0.04 0.04 76 1008.9
20210517214005 48 303 0.9 2.6 0.00 0.04 0.04 75 1008.9
20210517213005 48 303 0.9 2.6 0.00 0.04 0.04 74 1008.8
20210517212006 49 0 0.0 1.7 0.00 0.04 0.04 73 1008.8
20210517211005 49 0 0.0 0.0 0.00 0.04 0.04 72 1008.7
20210517210005 49 0 0.0 0.9 0.00 0.04 0.04 72 1008.7
20210517205006 50 0 0.0 1.7 0.00 0.04 0.04 71 1008.6
20210517204005 50 301 0.0 1.7 0.00 0.04 0.04 70 1008.6
20210517203005 50 303 0.9 1.7 0.00 0.04 0.04 69 1008.5
20210517202005 51 302 1.7 3.5 0.00 0.04 0.04 68 1008.4
20210517201005 51 301 1.7 4.3 0.00 0.04 0.04 67 1008.2
20210517200006 51 302 1.7 4.3 0.00 0.04 0.04 66 1008.1
20210517195005 52 302 2.6 5.2 0.00 0.04 0.04 66 1008.0
20210517194005 53 302 3.5 6.1 0.00 0.04 0.04 65 1007.9